Showing default

BEIDOU 11, 38091

Orbit data source: Space-Track

BEIDOU 11, 38091 is a payload satellite owned by CNSA (CN) in GEO that was launched on Fri, 24 Feb 2012 UTC via a CHANG ZHENG 3C launch vehicle from the Xichang Space Center, China (XSC). Payload-class satellites include a variety of spacecraft equipped with specific instruments for various scientific and technological missions. These include communications satellites like Starlink; space stations such as the ISS; scientific satellites like the Hubble; Earth observation satellites from companies like Planet Labs, Umbra, and HawkEye 360; GPS; miniature CubeSats for education and research; and military/defense satellites.

Not visible in the next 10 days
Identifier
38091, 2012-008A
Orbit
GEO
Last TLE update
9 hours ago
Origin
Manufacturer
CAST
Mission
Operational Defense Navigation
Bus & Motor
DFH-3B, FY-25
Mass
3,060 kg wet, 1,700 kg dry
Launch date (UTC)
2012-02-24 (13 years ago)
Launch vehicle
CHANG ZHENG 3C
Launch site
Xichang Space Center, China (XSC)
Object type
Payload
Rocket body
Debris
Shape & HBR
Box + 2 Pan, 18 m
Radar Cross Section
13.998 m², Large (>1 m²)

Expand to show TLE details & history

TLE from 9 hours ago
0 BEIDOU 11
1 38091U 12008A   25187.57584878  .00000070  00000-0  00000-0 0  9994
2 38091   2.7104  71.2424 0007101 267.4618 212.1671  1.00276311 48902
Epoch: 2025-07-06T13:49Z
TLE epoch observation values (Epoch: 2025-07-06T13:49:13.334Z)
Latitude
2.36252°
Longitude
58.75712°
Altitude
35,809.769 km
Speed
3.073 km/s
True Right ascension
12h 43m 26s
True Declination
2° 21' 36"
Sunlit
Object was in daylight at epoch
Visualization orbit readout
Latitude
-2.57083°
Longitude
-170.8289°
Altitude
35,756.626 km
Speed
3.077 km/s
Apparent Right ascension
21h 31m 46s
Apparent Declination
-7° 15' 13"
Sunlit
Object is in daylight
Visualization observer readout
Local Sidereal Time
10:29:41
Azimuth
25.525° NE
Elevation
-54.855°
Doppler factor
1
Orbital elements
Apogee altitude
35,816.334 km
Perigee altitude
35,756.452 km
Semi-major axis
42,164.53 km
Eccentricity
0.00071
Inclination
2.7104°
RAAN
71.2424°
Arg. of periapsis
267.4618°
True anomaly
Unknown
Mean anomaly
212.1671°
Eccentric anomaly
Unknown
Mean motion
0.25068 °/min
Orbital period
1,436.09 mins
BSTAR
0
Loading historical data...
38091 neighbors
Loading maneuver chart data...
Loading SW <> Apogee altitude chart data...
Loading historical data...
Loading historical data...
Loading historical data...
Loading historical data...
Loading historical data...
Loading historical data...
Loading historical data...

BEIDOU 11 Visibility

Observer location: undefined°, undefined°

BEIDOU 11 is likely not visible in the next few days
Span
Click to sort rows by Start time (UTC) header in descending order
Start Az.
Max El. time (UTC)
Max El. Az.
Max El.
End time (UTC)
End Az.
|